Regional Weather Roundup
Issued by NWS

Home | Current Version | Previous Version | Text Only | Print | Product List | Glossary Off
Versions: 1 2 3 4 5 6 7 8 9 10 11 12 13 14 15 16 17 18 19 20 21 22 23 24 25 26 27 28 29 30 31 32 33 34 35 36 37 38 39 40 41 42 43 44 45 46 47 48 49 50

000
ASUS45 KBOI 261510
RWRID
WEATHER ROUNDUP FOR IDAHO
NATIONAL WEATHER SERVICE BOISE ID
900 AM MDT THU MAR 26 2015

NOTE: "FAIR" INDICATES FEW OR NO CLOUDS BELOW 12000 FEET
WITH NO SIGNIFICANT WEATHER AND/OR OBSTRUCTIONS TO VISIBILITY

IDZ012-014-261600-
SOUTHWEST IDAHO


CITY           SKY/WX    TMP DP  RH WIND       PRES   REMARKS
BOISE          SUNNY     38  35  89 S3        30.41F
CALDWELL       SUNNY     37  28  70 CALM      30.44S
MOUNTAIN HOME  SUNNY     38  33  84 NW8       30.41S WCI  32
$$

IDZ016-017-261600-
SOUTHCENTRAL IDAHO


CITY           SKY/WX    TMP DP  RH WIND       PRES   REMARKS
BURLEY         SUNNY     38  30  73 SW6       30.40R WCI  33
JEROME         MOSUNNY   40  30  67 S6        30.41R
TWIN FALLS     MOSUNNY   43  31  62 S9        30.41R
$$

IDZ019>023-261600-
SOUTHEAST IDAHO


CITY           SKY/WX    TMP DP  RH WIND       PRES   REMARKS
IDAHO FALLS    MOSUNNY   35  30  82 S7        30.41S WCI  29
POCATELLO      MOSUNNY   42  34  73 SW9       30.42S
REXBURG        MOSUNNY   35  28  75 S6G17     30.40R WCI  30
$$

IDZ006-010-011-018-031-032-261600-
CENTRAL IDAHO MOUNTAINS


CITY           SKY/WX    TMP DP  RH WIND       PRES   REMARKS
MCCALL         FOG       30  30 100 CALM      30.40S VSB 1/4
HAILEY         MOSUNNY   37  27  65 NW5       30.41R WCI  34
STANLEY          N/A     27  22  81 E5        30.45S WCI  22
SALMON         CLOUDY    43  32  65 CALM      30.37R
CHALLIS        SUNNY     40  29  64 NE3       30.40S
$$

IDZ002-004-006-007-026-261600-
NORTHERN IDAHO


CITY           SKY/WX    TMP DP  RH WIND       PRES   REMARKS
LEWISTON       CLOUDY    46  43  89 CALM      30.35R
LOWELL           N/A     44  42  93 N3        30.40F
COEUR D`ALENE  CLOUDY    46  43  87 SE6       30.32S
MULLAN PASS    LGT RAIN  34  34 100 SW12      30.30R VSB 1/4 WCI  25
$$


USA.gov is the U.S. government's official web portal to all federal, state and local government web resources and services.